15min,AgWx,beryljct,423,14OCT2021:00:00:00,31.7,12.8,30.6,30.3,30.9,31.7,30.1,90,92,88,0.524,28.3,28.9,27.0,1.841,0.9,192,35,2.4,-0.00018,-0.00025,45.5,49.8,24,0,0,.,14.94,0.00,0.00
15min,AgWx,beryljct,423,14OCT2021:00:15:00,31.3,12.79,29.7,29.8,30.0,30.7,29.5,92,93,91,0.518,28.1,28.8,27.3,3.266,2.3,171,33,3.4,-0.00013,-0.00016,45.3,49.7,24,0,0,.,14.94,0.00,0.00
15min,AgWx,beryljct,423,14OCT2021:00:30:00,31.0,12.79,30.7,30.7,30.7,31.4,29.5,92,94,89,0.514,28.5,29.2,27.7,3.113,3.2,300,30,5.0,-0.00011,-0.00013,45.2,49.7,24,0,0,.,14.95,0.00,0.00
15min,AgWx,beryljct,423,14OCT2021:00:45:00,30.8,12.78,28.7,28.5,29.9,30.8,28.5,90,91,89,0.482,27.3,28.4,26.1,2.587,2.4,15,30,3.6,-0.00012,-0.00015,45.0,49.6,24,0,0,.,14.95,0.00,0.00
15min,AgWx,beryljct,423,14OCT2021:01:00:00,30.3,12.78,29.4,29.4,29.1,29.9,28.4,92,93,91,0.504,27.2,28.1,26.2,0.965,2.5,3.2,17,3.7,-0.00012,-0.00015,44.8,49.6,24,0,0,.,14.95,0.00,0.00
15min,AgWx,beryljct,423,14OCT2021:01:15:00,30.0,12.77,29.8,30.1,29.0,30.2,28.2,92,94,91,0.528,27.0,28.5,26.0,2.148,1.6,305,33,2.6,-0.00015,-0.00020,44.7,49.6,24,0,93,.,14.94,0.00,0.00
15min,AgWx,beryljct,423,14OCT2021:01:30:00,29.8,12.77,31.1,30.8,30.6,31.2,29.9,91,93,89,0.521,28.3,29.0,27.5,2.587,1.9,313,11,3.3,-0.00014,-0.00018,44.5,49.5,24,0,100,.,14.95,0.00,0.00
15min,AgWx,beryljct,423,14OCT2021:01:45:00,29.9,12.76,28.9,30.1,30.6,31.3,29.8,90,91,89,0.515,28.0,28.9,27.0,0.175,2.4,332,7.5,3.3,-0.00012,-0.00015,44.3,49.4,24,0,100,.,14.95,0.00,0.00
15min,AgWx,beryljct,423,14OCT2021:02:00:00,29.6,12.75,28.0,27.4,27.9,29.9,27.0,92,93,89,0.470,25.8,27.7,25.0,2.236,3.2,117,29,5.0,-0.00010,-0.00012,44.2,49.4,25,0,100,.,14.95,0.00,0.00
15min,AgWx,beryljct,423,14OCT2021:02:15:00,29.1,12.73,27.4,27.1,27.1,27.6,26.7,93,94,93,0.471,25.4,25.9,24.9,3.047,2.1,113,48,3.5,-0.00013,-0.00016,44.0,49.3,24,0,100,.,14.95,0.00,0.00
15min,AgWx,beryljct,423,14OCT2021:02:30:00,28.7,12.74,28.2,27.4,27.2,27.4,26.9,95,95,94,0.480,25.8,26.1,25.5,3.135,2.8,175,5.3,4.1,-0.00011,-0.00014,43.9,49.3,24,0,100,.,14.95,0.00,0.00
15min,AgWx,beryljct,423,14OCT2021:02:45:00,28.6,12.72,29.5,29.0,28.5,29.0,27.5,95,95,94,0.509,27.2,27.6,26.2,5.283,4.0,169,5.4,5.5,-0.00010,-0.00011,43.7,49.2,24,0,100,.,14.95,0.00,0.00
15min,AgWx,beryljct,423,14OCT2021:03:00:00,28.8,12.7,29.6,29.5,29.3,29.6,29.0,94,94,93,0.512,27.7,28.0,27.5,3.398,4.3,177,4.7,5.5,-0.00009,-0.00010,43.6,49.2,24,0,100,.,14.95,0.00,0.00
15min,AgWx,beryljct,423,14OCT2021:03:15:00,29.1,12.71,30.8,30.1,30.0,30.5,29.4,93,93,92,0.521,28.1,28.7,27.6,3.793,3.3,179,4.8,4.4,-0.00011,-0.00012,43.5,49.1,24,0,100,.,14.94,0.00,0.00
15min,AgWx,beryljct,423,14OCT2021:03:30:00,29.2,12.7,28.7,29.1,30.2,30.7,29.1,92,92,91,0.493,28.0,28.7,26.8,2.696,2.8,184,8.1,4.4,-0.00011,-0.00014,43.3,49.0,24,0,100,.,14.95,0.00,0.00
15min,AgWx,beryljct,423,14OCT2021:03:45:00,28.9,12.7,25.5,25.6,27.5,29.1,25.6,91,93,91,0.429,25.3,26.7,23.3,1.469,1.6,248,52,2.6,-0.00014,-0.00019,43.2,49.0,24,0,100,.,14.95,0.01,0.00
15min,AgWx,beryljct,423,14OCT2021:04:00:00,28.1,12.69,26.0,25.9,25.6,26.0,25.0,93,95,92,0.450,23.9,24.6,23.4,0.745,1.5,317,9.0,2.7,-0.00014,-0.00018,43.1,48.9,24,0,100,.,14.95,0.00,0.00
15min,AgWx,beryljct,423,14OCT2021:04:15:00,27.5,12.68,25.9,25.5,25.6,26.1,24.9,95,95,94,0.444,24.3,24.9,23.5,1.556,1.5,321,0.0,2.0,-0.00014,-0.00019,42.9,48.8,24,0,100,.,14.95,0.00,0.00
15min,AgWx,beryljct,423,14OCT2021:04:30:00,26.9,12.66,26.0,25.6,25.6,25.9,25.4,95,95,95,0.446,24.4,24.7,24.1,0.855,1.5,321,0.1,2.4,-0.00014,-0.00019,42.8,48.8,24,0,100,.,14.95,0.00,0.00
15min,AgWx,beryljct,423,14OCT2021:04:45:00,26.3,12.65,24.6,24.7,25.3,25.8,24.7,95,95,95,0.428,24.1,24.7,23.4,0,0.1,321,0.1,0.8,-0.00020,-0.00031,42.7,48.7,24,0,100,.,14.95,0.00,0.00
15min,AgWx,beryljct,423,14OCT2021:05:00:00,25.8,12.64,25.7,25.3,24.9,25.3,24.5,95,95,94,0.439,23.5,24.0,23.1,0,0.4,321,0.0,1.1,-0.00018,-0.00027,42.6,48.6,24,0,0,.,14.95,0.00,0.00
15min,AgWx,beryljct,423,14OCT2021:05:15:00,25.6,12.62,26.4,26.0,25.1,26.0,24.5,95,96,94,0.457,23.9,25.0,23.2,0,0.1,301,3.2,0.6,-0.00020,-0.00032,42.5,48.6,24,0,0,.,14.95,0.00,0.00
15min,AgWx,beryljct,423,14OCT2021:05:30:00,25.4,12.6,22.6,23.3,25.4,26.1,23.3,95,96,94,0.401,24.2,25.2,21.8,1.929,0.2,298,1.1,1.9,-0.00019,-0.00030,42.3,48.5,24,0,0,.,14.95,0.00,0.00
15min,AgWx,beryljct,423,14OCT2021:05:45:00,25.1,12.59,24.7,23.9,23.3,24.1,22.5,95,95,94,0.417,22.0,22.8,21.1,0.811,1.4,305,0.2,2.1,-0.00014,-0.00018,42.2,48.5,24,0,0,.,14.95,0.00,0.00
15min,AgWx,beryljct,423,14OCT2021:06:00:00,25.0,12.57,23.4,24.1,24.8,25.2,24.0,95,96,94,0.416,23.6,24.2,22.7,0,0.2,305,0.1,0.7,0.00001,0.00001,42.1,48.4,24,0,0,.,14.95,0.00,0.00
15min,AgWx,beryljct,423,14OCT2021:06:15:00,24.8,12.54,24.5,24.0,24.1,24.9,23.3,94,94,93,0.411,22.6,23.5,21.6,1.206,1.4,233,82,3.3,0.00002,0.00003,42.0,48.3,24,0,0,.,14.95,0.00,0.00
15min,AgWx,beryljct,423,14OCT2021:06:30:00,24.6,12.54,25.5,25.0,24.2,25.0,23.7,94,95,94,0.437,22.8,23.9,22.1,2.85,1.0,158,3.2,2.9,0.00001,0.00002,41.9,48.3,24,0,0,.,14.95,0.00,0.00
15min,AgWx,beryljct,423,14OCT2021:06:45:00,24.6,12.54,26.0,25.4,24.7,25.4,24.1,95,96,95,0.447,23.6,24.4,22.8,0.592,1.8,183,0.5,2.9,0.00003,0.00004,41.8,48.2,24,3,0,.,14.95,0.00,0.00
15min,AgWx,beryljct,423,14OCT2021:07:00:00,24.6,12.63,25.5,25.8,25.1,25.9,23.7,96,96,94,0.453,24.0,24.9,22.3,1.271,1.6,106,30,3.8,0.00009,0.00010,41.7,48.1,24,22,0,.,14.95,0.00,0.00
15min,AgWx,beryljct,423,14OCT2021:07:15:00,25.1,12.8,26.4,25.9,25.7,25.9,25.2,95,96,94,0.450,24.4,24.8,23.7,0.986,1.6,155,37,3.2,0.00021,0.00023,41.6,48.1,24,56,0,.,14.95,0.00,0.00
15min,AgWx,beryljct,423,14OCT2021:07:30:00,26.0,13.1,27.9,27.3,26.1,27.4,25.6,94,95,93,0.475,24.5,26.0,23.9,0,0.1,186,0.0,1.2,0.00034,0.00037,41.5,48.0,24,104,0,.,14.94,0.00,0.00
15min,AgWx,beryljct,423,14OCT2021:07:45:00,27.5,13.56,27.9,27.8,27.5,28.5,26.8,93,94,93,0.481,25.8,27.1,24.9,0.57,0.2,183,0.5,1.3,0.00048,0.00052,41.4,47.9,24,145,0,.,14.94,0.00,0.00
15min,AgWx,beryljct,423,14OCT2021:08:00:00,29.5,14.11,30.9,30.0,28.8,30.1,27.8,94,94,93,0.526,27.2,28.4,26.0,0,0.5,227,12,2.1,0.00063,0.00068,41.3,47.8,24,189,0,.,14.95,0.00,0.00
15min,AgWx,beryljct,423,14OCT2021:08:15:00,31.7,14.79,31.3,31.4,31.3,32.4,30.1,90,93,86,0.541,28.6,29.2,27.8,2.762,1.5,289,86,3.4,0.00082,0.00089,41.3,47.8,24,237,0,.,14.94,0.00,0.00
15min,AgWx,beryljct,423,14OCT2021:08:30:00,33.7,14.71,34.3,33.0,32.0,33.0,31.3,89,91,88,0.558,29.2,29.8,28.7,0.395,1.0,332,30,3.2,0.00101,0.00109,41.2,47.7,24,284,0,.,14.95,0.00,0.00
15min,AgWx,beryljct,423,14OCT2021:08:45:00,35.7,14.69,35.4,35.0,34.2,35.2,33.1,86,88,84,0.599,30.3,31.7,29.6,1.907,2.4,151,34,4.1,0.00120,0.00132,41.1,47.7,24,333,90,.,14.94,0.00,0.00
15min,AgWx,beryljct,423,14OCT2021:09:00:00,37.5,14.67,36.0,36.3,35.7,36.5,35.0,85,87,83,0.616,31.6,32.7,30.8,4.362,3.3,130,12,5.0,0.00139,0.00154,41.1,47.6,24,381,100,.,14.94,0.00,0.00
15min,AgWx,beryljct,423,14OCT2021:09:15:00,39.1,14.68,37.5,37.8,36.9,38.0,36.0,83,85,80,0.616,32.2,33.0,31.5,5.524,4.3,149,11,6.1,0.00157,0.00175,41.1,47.5,24,425,100,.,14.94,0.00,0.00
15min,AgWx,beryljct,423,14OCT2021:09:30:00,40.7,14.57,40.6,40.0,38.9,40.0,37.7,80,83,76,0.658,33.1,34.3,31.9,5.678,4.8,154,11,6.9,0.00179,0.00202,41.0,47.4,24,467,100,.,14.95,0.00,0.00
15min,AgWx,beryljct,423,14OCT2021:09:45:00,42.5,14.65,42.6,43.0,41.3,43.0,40.0,73,78,69,0.656,33.3,34.2,32.4,5.787,6.0,186,17,7.8,0.00205,0.00237,41.1,47.4,24,506,100,.,14.94,0.00,0.00
15min,AgWx,beryljct,423,14OCT2021:10:00:00,44.5,14.54,45.0,44.3,43.8,44.7,42.7,67,70,65,0.645,33.6,34.6,32.7,4.275,5.3,172,28,7.7,0.00237,0.00275,41.2,47.3,24,541,100,.,14.94,0.00,0.00
15min,AgWx,beryljct,423,14OCT2021:10:15:00,46.5,14.49,47.2,45.6,44.9,45.9,44.2,61,66,55,0.577,32.2,34.2,30.4,2.653,3.9,109,19,7.5,0.00260,0.00298,41.4,47.3,24,562,0,.,14.94,0.00,0.00
15min,AgWx,beryljct,423,14OCT2021:10:30:00,48.3,14.04,47.8,46.5,46.4,47.0,45.9,53,58,49,0.547,30.0,32.4,28.5,5.042,4.4,20,46,7.6,0.00292,0.00340,41.6,47.2,24,611,0,.,14.94,0.00,0.00
15min,AgWx,beryljct,423,14OCT2021:10:45:00,50.0,14.09,47.3,47.2,47.1,47.7,46.5,50,54,46,0.508,29.3,31.2,27.5,4.472,5.6,346,17,8.7,0.00306,0.00364,41.9,47.1,24,629,0,.,14.95,0.00,0.00
15min,AgWx,beryljct,423,14OCT2021:11:00:00,51.3,14.01,49.3,49.0,48.1,49.1,47.2,48,52,46,0.569,29.5,31.7,27.6,4.143,5.5,24,29,11.3,0.00323,0.00383,42.3,47.1,24,653,0,.,14.94,0.00,0.00
15min,AgWx,beryljct,423,14OCT2021:11:15:00,52.5,14,50.2,49.4,48.5,49.5,47.8,48,52,46,0.579,29.6,32.0,28.2,6.642,4.7,60,43,8.4,0.00334,0.00391,42.7,47.1,24,674,0,.,14.94,0.00,0.00
15min,AgWx,beryljct,423,14OCT2021:11:30:00,53.6,13.99,48.1,48.6,48.7,49.5,48.2,48,53,46,0.562,29.9,33.3,28.3,5.48,5.8,53,20,10.9,0.00341,0.00406,43.2,47.0,24,691,0,.,14.94,0.00,0.00
15min,AgWx,beryljct,423,14OCT2021:11:45:00,54.1,13.98,50.8,48.3,48.7,49.4,48.2,47,51,42,0.552,29.4,31.8,26.5,0,5.4,52,38,10.2,0.00347,0.00411,43.6,47.0,24,703,0,.,14.94,0.00,0.00
15min,AgWx,beryljct,423,14OCT2021:12:00:00,54.5,14,48.3,48.8,49.1,50.1,48.5,48,52,45,0.530,30.1,32.7,28.5,1.688,4.4,99,35,8.6,0.00354,0.00411,44.1,47.0,24,717,0,.,14.93,0.00,0.00
15min,AgWx,beryljct,423,14OCT2021:12:15:00,55.0,13.95,51.3,49.6,49.9,50.4,48.7,47,50,44,0.535,30.4,32.1,28.2,8.24,6.2,83,20,11.7,0.00360,0.00429,44.7,47.0,24,719,0,.,14.93,0.00,0.00
15min,AgWx,beryljct,423,14OCT2021:12:30:00,55.3,13.91,51.3,50.4,50.1,51.2,49.4,45,51,43,0.563,29.8,33.5,28.2,5.415,5.8,107,33,11.6,0.00394,0.00465,45.2,47.0,24,784,0,.,14.94,0.00,0.00
15min,AgWx,beryljct,423,14OCT2021:12:45:00,56.2,14,53.4,51.8,50.9,52.1,50.1,45,50,41,0.585,30.4,33.3,27.1,6.62,5.7,88,45,13.8,0.00409,0.00481,45.7,47.0,24,802,0,.,14.93,0.00,0.00
15min,AgWx,beryljct,423,14OCT2021:13:00:00,56.5,13.9,51.7,50.3,50.6,52.0,50.0,43,47,40,0.506,28.7,32.3,26.8,4.494,5.1,32,40,8.6,0.00267,0.00329,46.3,47.0,24,476,0,.,14.93,0.00,0.00
15min,AgWx,beryljct,423,14OCT2021:13:15:00,56.0,13.91,50.1,51.2,50.8,52.1,49.5,45,49,42,0.549,30.4,33.6,28.0,7.147,7.7,67,17,13.9,0.00314,0.00392,46.9,47.1,24,599,0,.,14.93,0.00,0.00
15min,AgWx,beryljct,423,14OCT2021:13:30:00,56.7,13.86,50.9,50.8,50.8,51.2,50.4,42,46,39,0.525,28.4,31.3,26.3,0.986,4.0,37,41,9.5,0.00379,0.00440,47.4,47.1,24,737,0,.,14.92,0.00,0.00
15min,AgWx,beryljct,423,14OCT2021:13:45:00,57.6,13.84,50.4,50.8,51.5,52.5,50.5,43,48,39,0.571,29.7,33.3,27.8,8.11,5.7,38,40,11.3,0.00285,0.00352,47.8,47.1,24,527,0,.,14.92,0.00,0.00
15min,AgWx,beryljct,423,14OCT2021:14:00:00,56.8,13.89,51.0,50.6,50.4,50.8,50.2,46,49,43,0.585,30.3,32.0,28.6,2.74,4.1,76,21,9.0,0.00163,0.00209,48.2,47.2,24,250,0,.,14.92,0.00,0.00
15min,AgWx,beryljct,423,14OCT2021:14:15:00,55.6,13.95,51.2,50.8,50.6,50.8,50.2,44,48,41,0.541,29.3,31.5,27.9,1.754,3.6,51,35,7.4,0.00154,0.00197,48.6,47.3,24,239,0,.,14.92,0.00,0.00
15min,AgWx,beryljct,423,14OCT2021:14:30:00,54.9,13.92,50.4,50.5,51.0,51.5,50.5,45,51,42,0.636,30.6,33.0,28.6,7.3,5.0,87,24,12.2,0.00169,0.00221,49.0,47.4,24,269,0,.,14.92,0.00,0.00
15min,AgWx,beryljct,423,14OCT2021:14:45:00,54.5,13.91,51.7,52.6,51.4,52.8,50.5,48,52,44,0.647,32.3,34.3,30.7,6.511,8.1,94,14,12.9,0.00244,0.00318,49.2,47.5,23,452,0,.,14.92,0.00,0.00
15min,AgWx,beryljct,423,14OCT2021:15:00:00,55.4,13.86,52.5,52.9,52.8,53.7,52.0,42,49,33,0.452,30.5,34.0,24.7,3.529,6.6,57,31,11.9,0.00292,0.00368,49.4,47.6,24,534,0,.,14.91,0.00,0.00
15min,AgWx,beryljct,423,14OCT2021:15:15:00,56.5,13.85,53.5,53.0,53.0,53.5,52.3,40,47,33,0.635,29.2,33.4,24.8,4.187,6.5,69,32,12.2,0.00236,0.00310,49.5,47.7,24,413,0,.,14.91,0.00,0.00
15min,AgWx,beryljct,423,14OCT2021:15:30:00,57.1,13.83,51.8,51.8,52.7,53.7,51.8,45,48,43,0.574,31.8,34.5,30.2,9.25,10.9,54,16,15.5,0.00263,0.00358,49.7,47.8,23,444,0,.,14.91,0.00,0.00
15min,AgWx,beryljct,423,14OCT2021:15:45:00,57.1,13.86,51.9,52.2,52.2,52.5,51.7,44,46,41,0.593,30.7,32.4,28.7,10.13,8.0,42,14,12.6,0.00233,0.00311,49.9,47.9,24,407,0,.,14.92,0.00,0.00
15min,AgWx,beryljct,423,14OCT2021:16:00:00,57.2,13.88,51.6,52.1,52.2,52.5,51.9,43,46,40,0.588,30.6,31.9,28.6,9.14,9.2,48,15,12.3,0.00218,0.00303,50.0,48.0,24,361,0,.,14.91,0.00,0.00
15min,AgWx,beryljct,423,14OCT2021:16:15:00,57.0,13.85,51.1,51.4,51.8,52.2,51.4,44,47,43,0.596,30.7,32.4,29.6,14.14,10.4,49,12,14.7,0.00201,0.00289,50.1,48.2,24,316,0,.,14.91,0.00,0.00
15min,AgWx,beryljct,423,14OCT2021:16:30:00,56.4,13.9,50.7,50.8,51.1,51.3,50.8,48,51,45,0.583,31.9,33.7,30.5,12.1,11.2,55,12,14.5,0.00176,0.00261,50.2,48.2,24,269,0,.,14.92,0.00,0.00
15min,AgWx,beryljct,423,14OCT2021:16:45:00,55.6,13.88,50.0,50.0,50.5,50.8,50.0,48,52,45,0.610,31.6,33.3,30.0,15.89,11.2,54,11,15.9,0.00154,0.00236,50.2,48.3,24,223,0,.,14.92,0.00,0.00
15min,AgWx,beryljct,423,14OCT2021:17:00:00,54.7,13.9,49.3,49.6,49.8,50.1,49.5,50,53,49,0.619,32.1,33.0,31.4,10.26,10.8,51,10,14.5,0.00060,0.00071,50.2,48.5,23,178,0,.,14.92,0.00,0.00
15min,AgWx,beryljct,423,14OCT2021:17:15:00,53.6,13.33,48.7,48.5,49.0,49.5,48.5,52,54,50,0.604,32.2,32.9,31.6,11.88,10.0,50,8.1,14.1,0.00050,0.00060,50.1,48.5,24,133,0,.,14.91,0.00,0.00
15min,AgWx,beryljct,423,14OCT2021:17:30:00,52.3,13.9,47.6,47.8,48.2,48.7,47.8,53,56,51,0.612,32.1,32.9,31.3,11.27,10.1,53,8.3,14.2,0.00043,0.00052,50.0,48.6,24,91,0,.,14.92,0.00,0.00
15min,AgWx,beryljct,423,14OCT2021:17:45:00,50.6,13.13,45.9,46.0,46.8,47.8,45.9,57,60,54,0.619,32.4,32.8,31.9,7.563,8.2,50,7.4,12.9,0.00027,0.00034,49.9,48.7,23,28,0,.,14.92,0.00,0.00
15min,AgWx,beryljct,423,14OCT2021:18:00:00,48.6,13.04,44.5,44.3,45.1,45.9,44.3,60,61,59,0.601,31.9,32.4,31.6,6.774,6.2,51,6.9,9.8,0.00015,0.00020,49.7,48.8,24,9,0,.,14.92,0.00,0.00
15min,AgWx,beryljct,423,14OCT2021:18:15:00,46.9,13,43.6,43.9,44.2,44.6,43.7,60,61,59,0.589,31.3,31.6,31.0,6.226,6.8,51,6.7,9.3,0.00015,0.00020,49.5,48.9,24,2,0,.,14.92,0.00,0.00
15min,AgWx,beryljct,423,14OCT2021:18:30:00,45.3,12.97,42.6,42.3,43.0,43.8,42.3,63,64,61,0.591,31.1,31.3,31.0,6.599,5.5,43,6.3,7.3,0.00008,0.00013,49.3,49.0,23,0,0,.,14.93,0.00,0.00
15min,AgWx,beryljct,423,14OCT2021:18:45:00,44.1,12.96,41.9,41.9,42.1,42.5,41.7,65,66,64,0.591,31.3,31.5,31.1,7.19,7.4,46,7.2,9.5,0.00012,0.00016,49.1,49.0,24,0,0,.,14.93,0.00,0.00
15min,AgWx,beryljct,423,14OCT2021:19:00:00,43.2,12.96,41.2,41.3,41.8,42.2,41.2,65,67,64,0.586,30.9,31.2,30.8,6.226,7.4,51,6.6,11.6,0.00012,0.00016,48.9,49.1,24,0,0,.,14.93,0.00,0.00
15min,AgWx,beryljct,423,14OCT2021:19:15:00,42.4,12.94,40.7,40.7,41.0,41.3,40.7,67,68,66,0.582,30.9,31.0,30.8,4.911,6.3,49,7.7,9.2,0.00008,0.00012,48.6,49.2,24,0,0,.,14.93,0.00,0.00
15min,AgWx,beryljct,423,14OCT2021:19:30:00,41.7,12.94,40.6,40.5,40.4,40.7,40.2,69,70,68,0.594,31.1,31.4,30.8,8.7,6.9,49,9.1,11.0,0.00008,0.00011,48.4,49.2,24,0,0,.,14.93,0.00,0.00
15min,AgWx,beryljct,423,14OCT2021:19:45:00,41.2,12.92,39.9,39.7,40.1,40.5,39.7,71,73,69,0.603,31.5,31.7,31.2,7.826,7.8,52,9.5,10.0,0.00008,0.00012,48.2,49.2,24,0,0,.,14.93,0.00,0.00
15min,AgWx,beryljct,423,14OCT2021:20:00:00,40.7,12.92,39.3,39.1,39.4,39.8,39.1,73,74,72,0.597,31.5,31.7,31.4,7.3,7.6,50,8.0,10.3,0.00007,0.00009,47.9,49.3,24,0,0,.,14.94,0.00,0.00
15min,AgWx,beryljct,423,14OCT2021:20:15:00,40.1,12.9,38.0,38.2,38.7,39.1,38.2,75,76,74,0.592,31.3,31.5,31.1,3.025,5.0,56,7.5,8.3,-0.00000,0.00002,47.7,49.3,24,0,0,.,14.94,0.00,0.00
15min,AgWx,beryljct,423,14OCT2021:20:30:00,39.2,12.9,37.7,37.2,37.4,38.2,37.0,78,79,76,0.588,31.0,31.3,30.8,4.406,3.7,34,8.9,6.1,-0.00006,-0.00006,47.5,49.3,24,0,0,.,14.94,0.00,0.00
15min,AgWx,beryljct,423,14OCT2021:20:45:00,38.5,12.9,37.1,36.5,37.0,37.4,36.5,78,80,78,0.580,30.9,31.2,30.6,3.617,3.7,39,7.2,6.3,-0.00006,-0.00006,47.3,49.4,24,0,0,.,14.94,0.00,0.00
15min,AgWx,beryljct,423,14OCT2021:21:00:00,37.7,12.88,36.5,36.0,36.4,36.6,36.0,79,80,78,0.569,30.5,30.9,30.1,0.46,2.3,34,7.2,4.0,-0.00011,-0.00013,47.1,49.4,24,0,0,.,14.94,0.00,0.00
15min,AgWx,beryljct,423,14OCT2021:21:15:00,36.9,12.86,36.4,35.6,35.5,36.1,34.9,80,82,78,0.556,30.0,30.6,29.4,1.491,0.8,336,50,2.3,-0.00020,-0.00028,46.9,49.4,23,0,0,.,14.94,0.00,0.00
15min,AgWx,beryljct,423,14OCT2021:21:30:00,36.1,12.87,37.1,36.0,35.9,36.2,35.6,79,80,78,0.567,30.1,30.5,29.5,0.219,0.7,284,2.5,2.3,-0.00020,-0.00030,46.7,49.4,24,0,0,.,14.94,0.00,0.00
15min,AgWx,beryljct,423,14OCT2021:21:45:00,35.6,12.87,36.4,36.2,35.9,36.3,35.5,79,80,78,0.567,30.0,30.4,29.4,3.354,1.1,349,44,3.6,-0.00018,-0.00025,46.5,49.3,24,0,0,.,14.94,0.00,0.00
15min,AgWx,beryljct,423,14OCT2021:22:00:00,35.5,12.84,35.6,35.5,35.9,36.4,35.5,79,80,78,0.559,29.9,30.2,29.6,3.771,4.3,11,9.5,5.6,-0.00004,-0.00004,46.3,49.3,23,0,0,.,14.94,0.00,0.00
15min,AgWx,beryljct,423,14OCT2021:22:15:00,35.3,12.85,34.3,34.1,34.8,35.5,34.1,81,83,79,0.550,29.6,29.9,29.3,3.201,3.0,21,14,4.3,-0.00009,-0.00010,46.1,49.3,24,0,0,.,14.94,0.00,0.00
15min,AgWx,beryljct,423,14OCT2021:22:30:00,35.0,12.83,34.5,34.8,34.4,35.0,33.7,83,84,80,0.550,29.6,29.9,29.2,3.771,3.9,12,12,5.1,-0.00007,-0.00007,45.9,49.3,24,0,0,.,14.95,0.00,0.00
15min,AgWx,beryljct,423,14OCT2021:22:45:00,34.6,12.83,34.6,34.2,33.5,34.7,32.6,82,84,80,0.541,28.6,29.2,27.7,0.921,1.9,324,15,4.0,-0.00013,-0.00016,45.7,49.3,24,0,0,.,14.94,0.00,0.00
15min,AgWx,beryljct,423,14OCT2021:23:00:00,34.1,12.82,34.8,34.6,34.5,34.7,33.9,80,81,78,0.544,28.9,29.2,27.9,2.17,2.7,288,10,3.9,-0.00009,-0.00011,45.5,49.2,23,0,0,.,14.95,0.00,0.00
15min,AgWx,beryljct,423,14OCT2021:23:15:00,33.8,12.8,35.1,34.5,34.7,35.3,34.2,79,81,77,0.545,29.0,29.7,28.1,1.293,0.8,328,54,3.2,-0.00019,-0.00027,45.3,49.2,23,0,0,.,14.95,0.00,0.00
15min,AgWx,beryljct,423,14OCT2021:23:30:00,33.4,12.81,35.7,34.1,34.6,34.9,34.0,80,81,78,0.530,28.9,29.5,28.1,1.074,1.0,316,34,2.1,-0.00018,-0.00025,45.1,49.2,23,0,0,.,14.95,0.00,0.00
15min,AgWx,bigpiney,439,14OCT2021:00:00:00,30.0,12.43,27.2,27.0,26.9,27.2,26.3,80,84,78,0.410,21.6,22.3,21.0,2.411,1.5,171,7.4,2.5,-0.00002,-0.00002,42.6,44.2,48,0,0,0.0,5.75,0.00,0.00
15min,AgWx,bigpiney,439,14OCT2021:00:15:00,30.0,12.44,27.3,26.9,26.9,27.0,26.9,83,83,82,0.408,22.3,22.5,22.2,1.535,1.8,169,4.5,2.2,-0.00001,-0.00001,42.6,44.2,48,0,0,0.0,5.75,0.00,0.00
15min,AgWx,bigpiney,439,14OCT2021:00:30:00,30.1,12.41,27.5,27.2,27.0,27.3,26.9,80,82,79,0.396,21.8,22.2,21.5,2.126,1.9,139,9.8,2.6,-0.00001,-0.00000,42.6,44.3,48,0,0,0.0,5.75,0.00,0.00
15min,AgWx,bigpiney,439,14OCT2021:00:45:00,30.2,12.41,27.6,27.3,27.2,27.3,27.2,79,80,78,0.396,21.6,21.7,21.5,1.25,1.9,131,12,3.0,-0.00000,0.00000,42.5,44.2,48,0,0,0.0,5.75,0.00,0.00
15min,AgWx,bigpiney,439,14OCT2021:01:00:00,30.3,12.41,27.6,27.3,27.4,27.4,27.3,79,81,78,0.408,21.8,22.2,21.5,0.855,1.0,131,9.9,2.2,-0.00003,-0.00004,42.5,44.2,48,0,0,0.0,5.75,0.00,0.00
15min,AgWx,bigpiney,439,14OCT2021:01:15:00,30.4,12.4,27.4,27.2,27.3,27.4,27.2,82,82,81,0.413,22.4,22.6,22.2,2.039,0.9,85,23,2.2,-0.00004,-0.00005,42.5,44.2,48,0,0,0.0,5.75,0.00,0.00
15min,AgWx,bigpiney,439,14OCT2021:01:30:00,30.5,12.4,27.2,27.0,27.1,27.2,27.0,83,83,82,0.412,22.5,22.7,22.4,3.924,2.0,50,12,3.9,-0.00001,-0.00001,42.5,44.2,48,0,0,0.0,5.75,0.00,0.00
15min,AgWx,bigpiney,439,14OCT2021:01:45:00,30.5,12.4,27.0,26.8,26.9,27.0,26.8,82,83,82,0.409,22.2,22.5,21.9,0.263,1.9,47,18,4.1,-0.00001,-0.00001,42.4,44.1,48,0,0,0.0,5.75,0.00,0.00
15min,AgWx,bigpiney,439,14OCT2021:02:00:00,30.3,12.39,26.9,26.7,26.7,26.9,26.6,83,84,83,0.411,22.3,22.6,22.0,0,0.1,79,2.6,0.9,-0.00006,-0.00010,42.4,44.1,48,0,0,0.0,5.75,0.00,0.00
15min,AgWx,bigpiney,439,14OCT2021:02:15:00,30.3,12.38,27.0,26.7,26.8,26.9,26.7,84,84,83,0.414,22.5,22.6,22.2,1.359,0.4,22,1.8,1.8,-0.00005,-0.00008,42.4,44.2,48,0,0,0.0,5.75,0.00,0.00
15min,AgWx,bigpiney,439,14OCT2021:02:30:00,30.3,12.37,27.0,26.6,26.7,26.8,26.6,85,86,84,0.419,22.8,23.1,22.4,0.811,1.2,5.5,8.9,2.0,-0.00003,-0.00004,42.4,44.2,48,0,0,0.0,5.75,0.00,0.00
15min,AgWx,bigpiney,439,14OCT2021:02:45:00,30.3,12.37,26.8,26.6,26.6,26.7,26.5,86,87,86,0.422,23.0,23.3,22.9,0,0.3,21,8.1,1.3,-0.00006,-0.00009,42.4,44.1,48,0,0,0.0,5.75,0.00,0.00
15min,AgWx,bigpiney,439,14OCT2021:03:00:00,30.3,12.37,26.7,26.6,26.6,26.6,26.5,86,86,86,0.422,23.0,23.1,22.9,2.126,0.2,1.5,0.8,2.1,-0.00006,-0.00009,42.3,44.1,48,0,0,0.0,5.75,0.00,0.00
15min,AgWx,bigpiney,439,14OCT2021:03:15:00,30.1,12.36,25.9,25.7,26.2,26.6,25.7,88,90,86,0.425,23.2,23.3,22.9,2.631,2.5,343,15,3.4,-0.00001,-0.00001,42.3,44.1,48,0,0,0.0,5.75,0.00,0.00
15min,AgWx,bigpiney,439,14OCT2021:03:30:00,29.8,12.36,25.1,24.9,25.2,25.7,24.9,91,92,90,0.418,22.9,23.2,22.7,1.447,2.9,353,12,4.3,-0.00001,-0.00001,42.3,44.0,48,0,0,0.0,5.75,0.00,0.00
15min,AgWx,bigpiney,439,14OCT2021:03:45:00,29.3,12.33,25.1,24.9,24.9,25.0,24.9,92,93,92,0.421,23.0,23.1,22.8,1.578,1.5,302,31,2.3,-0.00003,-0.00004,42.3,44.1,48,0,0,0.0,5.75,0.00,0.00
15min,AgWx,bigpiney,439,14OCT2021:04:00:00,28.8,12.35,24.9,24.7,24.8,25.0,24.6,93,93,92,0.419,23.0,23.1,22.8,1.841,1.1,249,6.6,2.0,-0.00004,-0.00005,42.3,44.0,48,0,0,0.0,5.75,0.00,0.00
15min,AgWx,bigpiney,439,14OCT2021:04:15:00,28.5,12.34,25.2,24.9,24.7,25.0,24.6,93,93,93,0.423,22.9,23.2,22.7,1.315,1.2,266,10,1.7,-0.00004,-0.00005,42.2,44.0,48,0,0,0.0,5.75,0.00,0.00
15min,AgWx,bigpiney,439,14OCT2021:04:30:00,28.3,12.32,25.3,25.1,25.1,25.3,24.9,93,93,92,0.424,23.2,23.4,23.1,2.039,1.5,291,21,2.6,-0.00004,-0.00005,42.2,44.0,48,0,0,0.0,5.75,0.00,0.00
15min,AgWx,bigpiney,439,14OCT2021:04:45:00,28.3,12.32,24.9,24.6,25.0,25.3,24.6,92,92,92,0.414,22.9,23.3,22.6,2.258,2.1,349,20,3.0,-0.00003,-0.00003,42.2,44.1,48,0,0,0.0,5.75,0.00,0.00
15min,AgWx,bigpiney,439,14OCT2021:05:00:00,28.2,12.32,24.5,24.3,24.6,24.8,24.3,91,92,91,0.405,22.4,22.7,22.0,2.105,2.9,326,23,4.3,-0.00002,-0.00002,42.2,44.0,48,0,0,0.0,5.75,0.00,0.00
15min,AgWx,bigpiney,439,14OCT2021:05:15:00,28.0,12.3,24.6,24.3,24.3,24.5,24.1,91,91,90,0.403,21.9,22.2,21.7,2.981,3.8,277,9.4,5.4,-0.00001,-0.00000,42.2,44.0,48,0,0,0.0,5.75,0.00,0.00
15min,AgWx,bigpiney,439,14OCT2021:05:30:00,27.8,12.3,23.9,23.6,23.9,24.4,23.6,90,91,89,0.386,21.3,22.0,20.9,4.932,5.5,295,12,7.7,0.00001,0.00001,42.2,44.0,48,0,0,0.0,5.75,0.00,0.00
15min,AgWx,bigpiney,439,14OCT2021:05:45:00,27.5,12.3,23.8,23.5,23.5,23.7,23.4,89,89,89,0.384,20.8,21.0,20.7,3.003,3.4,263,11,5.1,-0.00000,-0.00000,42.1,44.0,48,0,0,0.0,5.75,0.00,0.00
15min,AgWx,bigpiney,439,14OCT2021:06:00:00,27.1,12.29,22.3,22.0,23.5,24.2,22.0,87,89,86,0.356,20.2,21.2,18.8,4.143,2.9,350,59,6.1,-0.00001,-0.00000,42.1,44.0,48,0,0,0.0,5.75,0.00,0.00
15min,AgWx,bigpiney,439,14OCT2021:06:15:00,26.6,12.28,23.4,23.0,22.4,23.0,22.0,89,90,86,0.362,19.7,20.0,19.1,5.261,5.3,22,11,7.3,0.00001,0.00001,42.1,43.9,48,0,0,0.0,5.75,0.00,0.00
15min,AgWx,bigpiney,439,14OCT2021:06:30:00,26.3,12.28,24.0,23.7,23.5,23.8,23.0,80,86,77,0.336,18.3,19.4,17.6,2.894,4.1,312,25,8.2,0.00003,0.00004,42.1,43.9,48,1,0,0.0,5.75,0.00,0.00
15min,AgWx,bigpiney,439,14OCT2021:06:45:00,26.0,12.28,24.0,23.8,23.6,24.2,23.1,77,80,75,0.336,17.6,18.0,17.2,4.428,3.5,295,19,6.0,0.00004,0.00005,42.1,43.9,48,8,0,0.0,5.75,0.00,0.00
15min,AgWx,bigpiney,439,14OCT2021:07:00:00,25.9,12.3,24.2,23.7,23.5,24.1,23.0,78,80,76,0.339,17.7,17.9,17.4,4.647,3.6,233,22,5.2,-0.00014,-0.00008,42.1,43.9,48,24,0,0.0,5.75,0.00,0.00
15min,AgWx,bigpiney,439,14OCT2021:07:15:00,26.0,12.32,26.6,26.1,25.1,26.1,23.8,75,78,72,0.348,18.3,18.9,17.8,4.034,4.1,232,11,5.6,0.00004,0.00013,42.0,43.8,48,39,0,0.0,5.75,0.00,0.00
15min,AgWx,bigpiney,439,14OCT2021:07:30:00,26.4,12.38,24.2,24.5,25.3,26.5,23.7,76,80,72,0.351,18.6,19.1,17.9,0.044,1.4,173,69,3.7,0.00008,0.00012,42.0,43.9,48,60,0,0.0,5.75,0.00,0.00
15min,AgWx,bigpiney,439,14OCT2021:07:45:00,26.8,12.54,27.7,27.1,25.6,27.1,24.3,77,79,73,0.366,19.3,20.6,18.5,3.88,2.3,204,23,5.5,0.00021,0.00027,42.0,43.9,48,91,0,0.0,5.75,0.00,0.00
15min,AgWx,bigpiney,439,14OCT2021:08:00:00,27.5,12.62,28.8,28.5,28.0,28.5,27.2,70,73,65,0.346,19.5,20.3,18.3,6.138,5.0,243,10,8.2,0.00042,0.00058,42.0,43.7,48,124,0,0.0,5.75,0.00,0.00
15min,AgWx,bigpiney,439,14OCT2021:08:15:00,28.5,13.31,29.3,29.5,28.9,29.5,28.5,66,68,65,0.363,19.1,19.9,18.2,9.91,7.1,245,8.6,10.8,0.00066,0.00090,42.0,43.9,48,209,0,0.0,5.75,0.00,0.00
15min,AgWx,bigpiney,439,14OCT2021:08:30:00,30.1,13.42,30.3,30.1,29.8,30.4,29.2,64,67,61,0.352,19.1,20.7,18.1,8.59,8.9,245,13,12.4,0.00105,0.00137,41.9,43.8,48,335,0,0.0,5.75,0.00,0.00